Weather History for KBIS - January, 2013

Change the Weather History Date:

Wednesday, January 2, 2013

  Actual Average Record
Temperature  
Mean Temperature 20 °F 13 °F  
Max Temperature 30 °F 23 °F 47 °F (1962)
Min Temperature 10 °F 2 °F -44 °F (1887)
Degree Days  
Heating Degree Days 45 52  
Month to date heating degree days 104  
Since 1 July heating degree days 3604  
Cooling Degree Days 0 0  
Month to date cooling degree days 0  
Year to date cooling degree days 0  
Moisture  
Dew Point 21 °F    
Average Humidity 80    
Maximum Humidity 88    
Minimum Humidity 64    
Precipitation  
Precipitation 0.01 in 0.01 in 0.23 in (1907)
Month to date precipitation 0.03  
Year to date precipitation 0.03  
Snow  
Snow 0.00 in 0.30 in 2.80 in (1910)
Month to date snowfall 0.6  
Since 1 July snowfall 21.1  
Snow Depth -    
Sea Level Pressure  
Sea Level Pressure 30.08 in    
Wind  
Wind Speed 13 mph (NW)    
Max Wind Speed 20 mph    
Max Gust Speed 26 mph    
Visibility 8 miles    
Events Snow    
T = Trace of Precipitation, MM = Missing Value Source: NWS Daily Summary

Daily Weather History Graph

Daily Weather History Graph

Search for Another Location

Airport or City:

Trip Planner

Search our weather history database for the weather conditions in past years. The results will help you decide how hot, cold, wet, or windy it might be!

Date:

Astronomy

Jan. 02, 2013 Rise Set
Actual Time 8:27 AM CST 5:06 PM CST
Civil Twilight 7:52 AM CST 5:41 PM CST
Nautical Twilight 7:14 AM CST 6:20 PM CST
Astronomical Twilight 6:37 AM CST 6:56 PM CST
Moon 11:03 PM CST (1/2) 10:50 AM CST (1/2)
Length of Visible Light 9h 48m
Length of Day
8h 38m
Waning Gibbous, 75% of the Moon is Illuminated
Jan 2
Waning Gibbous
Jan 4
Last Quarter
Jan 11
New
Jan 18
First Quarter
Jan 26
Full

Hourly Weather History & Observations

Time (CST) Temp. Windchill Dew Point Humidity Pressure Visibility Wind Dir Wind Speed Gust Speed Precip Events Conditions
12:12 AM 28.0 °F 18.1 °F 21.9 °F 78% 29.91 in 10.0 mi WNW 11.5 mph - N/A   Overcast
12:52 AM 28.9 °F 19.2 °F 23.0 °F 78% 29.99 in 10.0 mi WNW 11.5 mph 20.7 mph N/A   Overcast
1:52 AM 28.0 °F 17.5 °F 23.0 °F 81% 29.99 in 10.0 mi WNW 12.7 mph - N/A   Overcast
2:52 AM 28.9 °F 16.9 °F 24.1 °F 82% 30.00 in 10.0 mi NW 17.3 mph 24.2 mph N/A   Overcast
3:26 AM 30.0 °F 18.3 °F 24.1 °F 79% 29.92 in 10.0 mi NW 17.3 mph 23.0 mph N/A   Overcast
3:52 AM 30.0 °F 19.1 °F 24.1 °F 79% 30.01 in 10.0 mi NW 15.0 mph - N/A   Overcast
4:11 AM 30.0 °F 20.0 °F 25.0 °F 82% 29.92 in 10.0 mi WNW 12.7 mph 21.9 mph N/A   Overcast
4:25 AM 30.0 °F 21.1 °F 25.0 °F 82% 29.93 in 10.0 mi WNW 10.4 mph 21.9 mph N/A   Overcast
4:52 AM 30.0 °F 19.5 °F 25.0 °F 82% 30.01 in 10.0 mi WNW 13.8 mph - N/A   Overcast
5:38 AM 30.0 °F 20.0 °F 25.0 °F 82% 29.93 in 10.0 mi WNW 12.7 mph - N/A   Overcast
5:52 AM 30.2 °F 19.8 °F 24.8 °F 80% 29.93 in 10.0 mi WNW 13.8 mph - N/A   Overcast
6:52 AM 30.0 °F 20.0 °F 24.1 °F 79% 30.02 in 10.0 mi NW 12.7 mph - N/A   Overcast
7:05 AM 30.0 °F 20.5 °F 24.1 °F 79% 29.95 in 10.0 mi WNW 11.5 mph - N/A   Overcast
7:52 AM 30.0 °F 21.1 °F 24.1 °F 79% 30.03 in 10.0 mi NW 10.4 mph - N/A   Overcast
8:52 AM 30.2 °F 20.8 °F 24.8 °F 80% 29.96 in 7.0 mi WNW 11.5 mph 21.9 mph N/A   Overcast
9:30 AM 28.9 °F 18.2 °F 24.1 °F 82% 29.97 in 3.0 mi WNW 13.8 mph 23.0 mph 0.00 in Snow Light Snow
9:33 AM 28.9 °F 18.6 °F 24.1 °F 82% 29.97 in 2.0 mi WNW 12.7 mph 23.0 mph 0.00 in Snow Light Snow
9:43 AM 28.4 °F 18.0 °F 24.8 °F 86% 29.97 in 1.0 mi WNW 12.7 mph - N/A Snow Light Snow
9:52 AM 28.0 °F 18.1 °F 24.1 °F 85% 30.04 in 2.5 mi WNW 11.5 mph - 0.01 in Snow Light Snow
10:03 AM 28.0 °F 18.6 °F 25.0 °F 88% 29.98 in 1.2 mi West 10.4 mph - 0.00 in Snow Light Snow
10:22 AM 28.0 °F 18.6 °F 25.0 °F 88% 29.98 in 1.2 mi WNW 10.4 mph - 0.00 in Snow Light Snow
10:34 AM 28.0 °F 17.5 °F 25.0 °F 88% 29.99 in 1.2 mi WNW 12.7 mph - 0.00 in Snow Light Snow
10:43 AM 28.0 °F 17.0 °F 24.1 °F 85% 29.99 in 3.0 mi WNW 13.8 mph 24.2 mph 0.00 in Snow Light Snow
10:52 AM 28.0 °F 17.5 °F 24.1 °F 85% 30.06 in 6.0 mi WNW 12.7 mph - 0.00 in   Overcast
11:09 AM 28.9 °F 18.2 °F 24.1 °F 82% 30.00 in 7.0 mi WNW 13.8 mph - N/A   Overcast
11:52 AM 28.0 °F 16.5 °F 23.0 °F 81% 30.08 in 10.0 mi WNW 15.0 mph 23.0 mph N/A   Overcast
12:52 PM 28.0 °F 16.1 °F 21.9 °F 78% 30.08 in 10.0 mi NW 16.1 mph - N/A   Overcast
1:52 PM 28.0 °F 15.7 °F 21.9 °F 78% 30.09 in 10.0 mi NW 17.3 mph 23.0 mph N/A   Overcast
2:35 PM 28.0 °F 17.0 °F 21.9 °F 78% 30.04 in 10.0 mi NW 13.8 mph - N/A   Overcast
2:52 PM 28.0 °F 16.1 °F 21.9 °F 78% 30.11 in 10.0 mi NW 16.1 mph - N/A   Overcast
3:52 PM 28.0 °F 16.1 °F 24.1 °F 85% 30.14 in 7.0 mi North 16.1 mph 21.9 mph N/A   Overcast
4:49 PM 24.8 °F 12.4 °F 19.4 °F 80% 30.11 in 10.0 mi North 15.0 mph - 0.00 in   Overcast
4:52 PM 24.1 °F 11.5 °F 19.0 °F 81% 30.19 in 10.0 mi NNW 15.0 mph - 0.00 in   Overcast
5:27 PM 21.0 °F 5.7 °F 16.0 °F 81% 30.15 in 10.0 mi North 19.6 mph 23.0 mph N/A   Overcast
5:34 PM 19.9 °F 5.2 °F 15.1 °F 81% 30.16 in 10.0 mi North 17.3 mph - N/A   Overcast
5:52 PM 19.9 °F 6.7 °F 15.1 °F 81% 30.25 in 10.0 mi NNW 13.8 mph 26.5 mph N/A   Overcast
6:52 PM 19.9 °F 6.7 °F 15.1 °F 81% 30.28 in 10.0 mi NNW 13.8 mph - N/A   Overcast
7:52 PM 21.0 °F 6.2 °F 15.1 °F 78% 30.30 in 10.0 mi NNW 18.4 mph 24.2 mph N/A   Overcast
8:28 PM 19.9 °F 5.2 °F 14.0 °F 78% 30.24 in 10.0 mi NNW 17.3 mph 24.2 mph N/A   Overcast
8:52 PM 19.0 °F 6.1 °F 12.9 °F 77% 30.33 in 10.0 mi NNW 12.7 mph - N/A   Overcast
9:52 PM 19.0 °F 9.0 °F 14.0 °F 81% 30.34 in 10.0 mi North 8.1 mph - N/A   Overcast
10:52 PM 19.0 °F 7.5 °F 14.0 °F 81% 30.36 in 10.0 mi NW 10.4 mph - N/A   Overcast
11:52 PM 19.0 °F 10.0 °F 12.0 °F 74% 30.38 in 10.0 mi NNW 6.9 mph - N/A   Overcast